ZL4VM-1 Weather Reports


time (UTC)temp
C
wind
direction
speed
KPH
gust
KPH
rain 1hr
cm
rain 24hr
cm
rain mn
cm
humidity
%
barometer
mb
20260504081841 9 135 0.0 1.6 0.00 0.00 0.00 99 1030.7
20260504080941 9 137 0.0 3.2 0.00 0.00 0.00 98 1030.7
20260504045141 13 66 3.2 8.0 0.00 0.00 0.00 88 1030.1
20260504043341 12 90 3.2 8.0 0.00 0.00 0.00 87 1029.8
20260504041541 14 77 3.2 9.7 0.00 0.00 0.00 81 1029.8
20260504035741 14 80 3.2 12.9 0.00 0.00 0.00 82 1029.7
20260504034841 14 49 6.4 9.7 0.00 0.00 0.00 80 1029.7
20260504033941 15 70 3.2 14.5 0.00 0.00 0.00 78 1029.7
20260504033041 15 94 1.6 12.9 0.00 0.00 0.00 75 1029.4
20260504032141 16 65 3.2 9.7 0.00 0.00 0.00 73 1029.6
20260504030341 15 70 3.2 12.9 0.00 0.00 0.00 74 1029.3
20260504025441 15 90 4.8 12.9 0.00 0.00 0.00 76 1029.4
20260504024541 15 60 4.8 9.7 0.00 0.00 0.00 78 1029.4
20260504023640 14 68 3.2 14.5 0.00 0.00 0.00 78 1029.5
20260504021840 13 89 3.2 11.3 0.00 0.00 0.00 74 1029.4
20260504020941 14 34 6.4 12.9 0.00 0.00 0.00 71 1029.4
20260504020041 15 59 6.4 11.3 0.00 0.00 0.00 69 1029.6
20260504015140 15 79 6.4 11.3 0.00 0.00 0.00 70 1029.6
20260504014241 16 75 6.4 8.0 0.00 0.00 0.00 70 1029.8
20260504013341 15 66 6.4 12.9 0.00 0.00 0.00 74 1029.5
20260504012441 13 79 4.8 12.9 0.00 0.00 0.00 77 1029.9
20260504011540 13 87 6.4 12.9 0.00 0.00 0.00 76 1029.7
20260504004841 14 94 6.4 11.3 0.00 0.00 0.00 75 1030.1
20260504003941 15 86 6.4 11.3 0.00 0.00 0.00 78 1030.2
20260504003040 14 90 8.0 11.3 0.00 0.00 0.00 80 1030.3
20260504002141 14 70 3.2 12.9 0.00 0.00 0.00 80 1030.7
20260504001240 14 37 8.0 12.9 0.00 0.00 0.00 77 1030.7
20260504000340 15 39 3.2 8.0 0.00 0.00 0.00 78 1030.9
20260503235440 14 66 3.2 8.0 0.00 0.00 0.00 79 1031.2
20260503233641 14 76 3.2 9.7 0.00 0.00 0.00 74 1031.1
20260503232740 15 78 3.2 6.4 0.00 0.00 0.00 73 1031.3
20260503231841 15 82 3.2 6.4 0.00 0.00 0.00 70 1031.5
20260503230941 15 41 1.6 4.8 0.00 0.00 0.00 80 1031.5
20260503230041 13 90 1.6 6.4 0.00 0.00 0.00 81 1031.5
20260503225140 13 90 1.6 4.8 0.00 0.00 0.00 85 1031.5
20260503224240 12 94 1.6 4.8 0.00 0.00 0.00 88 1031.4
20260503222440 11 90 1.6 3.2 0.00 0.00 0.00 92 1031.7
20260503221540 11 90 0.0 1.6 0.00 0.00 0.00 92 1031.8
20260503220640 11 0 0.0 0.0 0.00 0.00 0.00 93 1031.6
20260503215740 11 90 0.0 1.6 0.00 0.00 0.00 93 1031.8
20260503214840 10 90 0.0 3.2 0.00 0.00 0.00 93 1032.0
20260503213940 10 90 0.0 3.2 0.00 0.00 0.00 93 1032.0
20260503213040 10 90 1.6 3.2 0.00 0.00 0.00 93 1031.9
20260503212140 10 90 1.6 3.2 0.00 0.00 0.00 93 1032.1
20260503211240 10 93 0.0 3.2 0.00 0.00 0.00 93 1031.9
20260503210341 10 225 0.0 3.2 0.00 0.00 0.00 94 1032.0
20260503205440 9 223 0.0 4.8 0.00 0.00 0.00 95 1032.0
20260503201840 8 225 1.6 4.8 0.00 0.00 0.00 97 1032.0
20260503200940 8 191 1.6 3.2 0.00 0.00 0.00 97 1031.9
20260503200040 8 90 0.0 3.2 0.00 0.00 0.00 97 1031.8
20260503195140 8 110 0.0 3.2 0.00 0.00 0.00 97 1031.6
20260503194240 8 225 0.0 3.2 0.00 0.00 0.00 97 1031.5
20260503193340 8 228 0.0 4.8 0.00 0.00 0.00 97 1031.7
20260503192440 8 225 3.2 6.4 0.00 0.00 0.00 97 1031.5
20260503185740 8 225 1.6 3.2 0.00 0.00 0.00 98 1031.4
20260503184840 8 225 0.0 3.2 0.00 0.00 0.00 98 1031.3
20260503183940 8 225 1.6 3.2 0.00 0.00 0.00 98 1031.5
20260503183040 8 225 0.0 3.2 0.00 0.00 0.00 98 1031.3
20260503182140 8 217 1.6 6.4 0.00 0.00 0.00 98 1031.2
20260503181240 8 233 3.2 4.8 0.00 0.00 0.00 97 1031.3
20260503174540 8 225 1.6 6.4 0.00 0.00 0.00 98 1031.4
20260503173640 8 248 3.2 6.4 0.00 0.00 0.00 97 1031.1
20260503172740 8 240 1.6 3.2 0.00 0.00 0.00 97 1031.4
20260503171840 8 225 1.6 4.8 0.00 0.00 0.00 97 1031.1
20260503170940 8 222 0.0 4.8 0.00 0.00 0.00 96 1031.0
20260503150340 10 147 0.0 3.2 0.00 0.00 0.00 84 1031.0